Date String (YYYY-MM-DD hh:mm:ss) UTC,Instrument flags,Ambient pressure (hPa),Sample flow (lpm),Bypass flow (lpm),Sample temperature (°C),Ambient temperature (°C),ASC tube jacket temperature (°C),LED temperature (°C),Box temperature (°C),Sample RH (%),Span deviation,Mass concentration (μg/m³),Mass concentration (μg/m³),Mass concentration (μg/m³)
DateTimeUTC,F1_M11,P_M11,Q1_M11,Q2_M11,T1_M11,T2_M11,T3_M11,T4_M11,T5_M11,U1_M11,ZSPAN_M11,X0_M11,X2_M11,X1_M11
2022-01-26 23:00:00,,0824.2,4.99,0.00,25.4,24.7,00.0,34.3,27.3,08.0,0000.0,0009.32,0006.03,0005.76
2022-01-26 23:01:00,,0824.3,5.01,0.00,25.4,24.7,00.0,34.3,27.3,08.0,0000.0,0009.35,0006.05,0005.78
2022-01-26 23:02:00,,0824.3,4.98,0.00,25.4,24.7,00.0,34.3,27.4,08.0,0000.0,0009.35,0006.06,0005.81
2022-01-26 23:03:00,,0824.2,4.99,0.00,25.5,24.7,00.0,34.3,27.3,08.0,0000.0,0009.42,0006.10,0005.83
2022-01-26 23:04:00,,0824.2,5.01,0.00,25.4,24.7,00.0,34.3,27.4,07.9,0000.0,0009.21,0006.15,0005.85
2022-01-26 23:05:00,,0824.3,4.99,0.00,25.4,24.7,00.0,34.3,27.4,07.8,0000.0,0009.06,0006.19,0005.85
2022-01-26 23:06:00,,0824.2,4.99,0.00,25.4,24.7,00.0,34.3,27.3,07.8,0000.0,0009.08,0006.19,0005.84
2022-01-26 23:07:00,,0824.3,5.02,0.00,25.4,24.7,00.0,34.3,27.3,07.8,0000.0,0008.96,0006.20,0005.84
2022-01-26 23:08:00,,0824.3,4.99,0.00,25.4,24.6,00.0,34.3,27.3,07.8,0000.0,0008.75,0006.18,0005.84
2022-01-26 23:09:00,,0824.3,4.99,0.00,25.4,24.6,00.0,34.3,27.2,07.8,0000.0,0008.71,0006.15,0005.84
2022-01-26 23:10:00,,0824.3,5.01,0.00,25.4,24.6,00.0,34.3,27.2,07.7,0000.0,0008.69,0006.14,0005.83
2022-01-26 23:11:00,,0824.3,4.99,0.00,25.4,24.6,00.0,34.3,27.2,07.8,0000.0,0008.67,0006.12,0005.82
2022-01-26 23:12:00,,0824.3,5.00,0.00,25.4,24.6,00.0,34.3,27.1,07.9,0000.0,0008.63,0006.10,0005.81
2022-01-26 23:13:00,,0824.3,5.01,0.00,25.3,24.5,00.0,34.3,27.1,07.9,0000.0,0009.14,0006.11,0005.80
2022-01-26 23:14:00,,0824.3,4.99,0.00,25.3,24.5,00.0,34.3,27.1,07.9,0000.0,0009.56,0006.13,0005.81
2022-01-26 23:15:00,,0824.3,5.01,0.00,25.3,24.5,00.0,34.3,27.0,07.9,0000.0,0010.35,0006.15,0005.85
2022-01-26 23:16:00,,0824.3,4.99,0.00,25.2,24.5,00.0,34.3,27.0,07.9,0000.0,0010.42,0006.18,0005.90
2022-01-26 23:17:00,,0824.3,4.99,0.00,25.2,24.5,00.0,34.2,27.0,07.9,0000.0,0011.14,0006.27,0005.96
2022-01-26 23:18:00,,0824.3,5.01,0.00,25.2,24.4,00.0,34.2,27.0,07.9,0000.0,0011.62,0006.36,0006.02
2022-01-26 23:19:00,,0824.3,5.00,0.00,25.2,24.4,00.0,34.2,27.0,08.0,0000.0,0011.72,0006.47,0006.11
2022-01-26 23:20:00,,0824.3,5.00,0.00,25.2,24.4,00.0,34.2,27.0,08.0,0000.0,0011.83,0006.56,0006.19
2022-01-26 23:21:00,,0824.3,5.00,0.00,25.2,24.4,00.0,34.2,26.9,07.9,0000.0,0012.00,0006.63,0006.26
2022-01-26 23:22:00,,0824.3,5.01,0.00,25.2,24.4,00.0,34.2,26.9,07.8,0000.0,0012.06,0006.68,0006.31
2022-01-26 23:23:00,,0824.3,5.01,0.00,25.1,24.3,00.0,34.2,26.9,07.8,0000.0,0012.20,0006.76,0006.37
2022-01-26 23:24:00,,0824.4,4.99,0.00,25.1,24.3,00.0,34.1,26.9,07.9,0000.0,0011.87,0006.85,0006.46
2022-01-26 23:25:00,,0824.4,4.99,0.00,25.1,24.3,00.0,34.1,26.9,07.9,0000.0,0011.63,0006.92,0006.53
2022-01-26 23:26:00,,0824.4,5.00,0.00,25.1,24.3,00.0,34.1,26.8,07.9,0000.0,0010.76,0006.98,0006.56
2022-01-26 23:27:00,,0824.5,5.01,0.00,25.1,24.3,00.0,34.1,26.8,07.9,0000.0,0011.00,0007.01,0006.59
2022-01-26 23:28:00,,0824.4,4.99,0.00,25.0,24.2,00.0,34.1,26.8,08.0,0000.0,0010.93,0007.05,0006.62
2022-01-26 23:29:00,,0824.4,5.01,0.00,25.0,24.1,00.0,34.1,26.7,08.1,0000.0,0010.42,0007.08,0006.66
2022-01-26 23:30:00,,0824.4,5.00,0.00,24.9,24.1,00.0,34.1,26.6,08.1,0000.0,0010.67,0007.07,0006.68
2022-01-26 23:31:00,,0824.4,5.00,0.00,24.9,24.1,00.0,34.0,26.6,08.2,0000.0,0010.69,0007.08,0006.68
2022-01-26 23:32:00,,0824.4,5.00,0.00,24.9,24.1,00.0,34.0,26.6,08.2,0000.0,0010.70,0007.12,0006.70
2022-01-26 23:33:00,,0824.4,5.00,0.00,24.9,24.1,00.0,34.0,26.6,08.2,0000.0,0010.78,0007.17,0006.73
2022-01-26 23:34:00,,0824.4,4.99,0.00,24.9,24.1,00.0,34.0,26.6,08.2,0000.0,0010.83,0007.25,0006.78
2022-01-26 23:35:00,,0824.5,5.01,0.00,24.9,24.0,00.0,33.9,26.6,08.2,0000.0,0011.08,0007.27,0006.81
2022-01-26 23:36:00,,0824.5,4.99,0.00,24.8,24.0,00.0,33.9,26.6,08.2,0000.0,0011.19,0007.28,0006.83
2022-01-26 23:37:00,,0824.5,5.00,0.00,24.8,24.0,00.0,33.9,26.6,08.1,0000.0,0011.26,0007.29,0006.84
2022-01-26 23:38:00,,0824.4,5.02,0.00,24.8,24.0,00.0,33.9,26.6,08.2,0000.8,0011.17,0007.34,0006.87
2022-01-26 23:39:00,,0824.5,4.99,0.00,24.8,24.0,00.0,33.9,26.6,08.3,0002.0,0010.75,0007.34,0006.91
2022-01-26 23:40:00,,0824.5,5.00,0.00,24.8,24.0,00.0,33.9,26.5,08.3,0002.0,0010.75,0007.39,0006.94
2022-01-26 23:41:00,,0824.5,5.01,0.00,24.8,24.0,00.0,33.8,26.5,08.3,0000.8,0010.73,0007.47,0006.99
2022-01-26 23:42:00,,0824.6,4.99,0.00,24.7,24.0,00.0,33.8,26.5,08.3,0001.8,0010.87,0007.53,0007.04
2022-01-26 23:43:00,,0824.6,5.00,0.00,24.7,23.9,00.0,33.8,26.5,08.2,0000.3,0010.84,0007.50,0007.03
2022-01-26 23:44:00,,0824.6,5.00,0.00,24.7,23.9,00.0,33.8,26.4,08.1,0000.0,0010.95,0007.42,0006.95
2022-01-26 23:45:00,,0824.6,5.02,0.00,24.7,23.9,00.0,33.8,26.4,08.0,0000.0,0010.82,0007.29,0006.86
2022-01-26 23:46:00,,0824.6,4.98,0.00,24.7,23.9,00.0,33.8,26.4,08.0,0000.0,0010.47,0007.19,0006.76
2022-01-26 23:47:00,,0824.7,5.01,0.00,24.6,23.9,00.0,33.7,26.3,08.0,0000.0,0010.55,0007.07,0006.65
2022-01-26 23:48:00,,0824.7,5.00,0.00,24.6,23.8,00.0,33.7,26.3,08.2,0000.0,0010.93,0006.95,0006.54
2022-01-26 23:49:00,,0824.7,4.98,0.00,24.6,23.8,00.0,33.7,26.3,08.4,0000.0,0010.71,0006.82,0006.44
2022-01-26 23:50:00,,0824.7,5.00,0.00,24.6,23.8,00.0,33.7,26.3,08.5,0000.0,0010.77,0006.69,0006.33
2022-01-26 23:51:00,,0824.7,5.01,0.00,24.6,23.8,00.0,33.7,26.3,08.4,0000.0,0010.62,0006.52,0006.18
2022-01-26 23:52:00,,0824.7,4.99,0.00,24.6,23.8,00.0,33.7,26.3,08.4,0000.0,0010.24,0006.33,0006.03
2022-01-26 23:53:00,,0824.7,5.00,0.00,24.5,23.8,00.0,33.6,26.3,08.4,0000.0,0009.99,0006.17,0005.89
2022-01-26 23:54:00,,0824.7,5.01,0.00,24.5,23.7,00.0,33.6,26.3,08.4,0000.0,0009.89,0006.08,0005.81
2022-01-26 23:55:00,,0824.7,5.01,0.00,24.5,23.7,00.0,33.6,26.2,08.3,0000.0,0009.64,0006.01,0005.76
2022-01-26 23:56:00,,0824.7,4.99,0.00,24.5,23.7,00.0,33.6,26.2,08.3,0000.0,0009.95,0005.98,0005.72
2022-01-26 23:57:00,,0824.8,4.99,0.00,24.4,23.6,00.0,33.6,26.1,08.3,0000.0,0010.32,0005.96,0005.69
2022-01-26 23:58:00,,0824.8,5.02,0.00,24.4,23.6,00.0,33.5,26.1,08.2,0000.0,0010.22,0005.93,0005.68
2022-01-26 23:59:00,,0824.8,4.99,0.00,24.4,23.6,00.0,33.5,26.1,08.2,0000.0,0009.64,0005.93,0005.68
